Location: Unspecified
(0.0000°N, 0.0000°E)
Time: 15:13:14
(UTC+00:00)

A-11 Canister half - Visible Passes

Search period start: 10 February 2016 00:00
Search period end: 20 February 2016 00:00
Orbit: 1527 x 1682 km, 47.3° (Epoch: 08 February)

Date Brightness Start Highest point End Pass type
(mag) Time Alt. Az. Time Alt. Az. Time Alt. Az.
10 Feb 10.2 20:51:57 10° S 20:57:08 26° SSE 20:57:08 26° SSE visible
11 Feb 10.1 20:30:34 10° S 20:36:53 27° SSE 20:36:53 27° SSE visible
11 Feb 11.1 22:34:01 10° SW 22:35:12 14° SW 22:35:12 14° SW visible
12 Feb 10.0 20:09:11 10° S 20:16:41 26° SE 20:16:41 26° SE visible
12 Feb 10.8 22:12:21 10° SW 22:15:00 21° SW 22:15:00 21° SW visible
13 Feb 10.0 19:47:51 10° S 19:55:22 24° SE 19:56:34 24° ESE visible
13 Feb 10.4 21:50:43 10° SW 21:54:54 29° SW 21:54:54 29° SW visible
14 Feb 10.1 19:26:30 10° S 19:33:44 22° SE 19:36:32 20° ESE visible
14 Feb 9.9 21:29:04 10° SW 21:34:52 41° SW 21:34:52 41° SW visible
15 Feb 10.3 19:05:12 10° S 19:12:06 21° SE 19:16:33 15° E visible
15 Feb 9.4 21:07:27 10° SW 21:14:53 57° SW 21:14:53 57° SW visible
16 Feb 10.4 18:43:55 10° S 18:50:28 19° SE 18:56:40 10° E visible
16 Feb 9.0 20:45:50 10° SW 20:55:01 79° WSW 20:55:01 79° WSW visible
17 Feb 8.8 20:24:14 10° SW 20:34:10 89° SE 20:35:12 75° NE visible
17 Feb 11.3 22:33:22 10° W 22:33:33 10° W 22:33:33 10° W visible
18 Feb 8.9 20:02:38 10° SW 20:12:35 84° SE 20:15:27 53° NE visible
18 Feb 11.0 22:11:17 10° W 22:13:49 15° WNW 22:13:49 15° WNW visible
19 Feb 9.0 19:41:04 10° SW 19:51:02 79° SE 19:55:47 35° NE visible
19 Feb 10.7 21:49:15 10° W 21:54:09 20° WNW 21:54:09 20° WNW visible
